Location: Ammerl�gen
(47.2167°N, 9.6000°E)
Time: 09:09:24
(UTC+00:00)

Iridium 4 Rocket - Pass Details

Date: 29 July 2021
Orbit: 584 x 904 km, 86.9° (Epoch: 18 September)

Event Time Altitude Azimuth Distance (km) Brightness Sun altitude
Rises 01:30:34 0° 356° (N) 3,368 7.7 -18.5°
Reaches altitude 10° 01:32:54 10° 355° (N) 2,471 6.9 -18.3°
Maximum altitude 01:38:32 81° 269° (W) 895 3.7 -17.8°
Enters shadow 01:42:12 24° 185° (S) 1,758 4.9 -17.5°
